EW7806 Weather Reports


time (UTC)temp
C
wind
direction
speed
KPH
gust
KPH
rain 1hr
cm
rain 24hr
cm
rain mn
cm
humidity
%
barometer
mb
20260507093312 16 30 0.0 4.8 0.00 0.00 0.00 54 1016.5
20260507092807 16 311 0.0 1.6 0.00 0.00 0.00 57 1016.5
20260507092307 16 65 0.0 1.6 0.00 0.00 0.00 56 1016.5
20260507091805 16 60 0.0 1.6 0.00 0.00 0.00 59 1016.4
20260507091255 16 58 0.0 3.2 0.00 0.00 0.00 59 1016.4
20260507090746 16 44 0.0 3.2 0.00 0.00 0.00 61 1016.3
20260507085734 15 273 0.0 1.6 0.00 0.00 0.00 62 1016.4
20260507084733 15 65 0.0 1.6 0.00 0.00 0.00 65 1016.3
20260507084219 15 67 0.0 4.8 0.00 0.00 0.00 66 1016.3
20260507083212 14 94 0.0 3.2 0.00 0.00 0.00 67 1016.2
20260507082705 14 51 0.0 3.2 0.00 0.00 0.00 67 1016.2
20260507082208 14 41 0.0 1.6 0.00 0.00 0.00 67 1016.2
20260507081706 13 82 0.0 1.6 0.00 0.00 0.00 68 1016.2
20260507081219 13 283 0.0 1.6 0.00 0.00 0.00 70 1016.2
20260507080207 13 27 0.0 1.6 0.00 0.00 0.00 70 1016.1
20260507075641 13 39 0.0 1.6 0.00 0.00 0.00 70 1016.1
20260507075140 13 171 0.0 1.6 0.00 0.00 0.00 72 1016.1
20260507074136 12 78 0.0 1.6 0.00 0.00 0.00 73 1016.1
20260507073634 12 79 0.0 1.6 0.00 0.00 0.00 74 1016.1
20260507073135 12 44 0.0 1.6 0.00 0.00 0.00 73 1016.1
20260507072634 12 359 0.0 1.6 0.00 0.00 0.00 73 1016.0
20260507072133 12 115 0.0 1.6 0.00 0.00 0.00 75 1015.9
20260507071633 12 70 0.0 1.6 0.00 0.00 0.00 77 1016.0
20260507071109 11 72 0.0 1.6 0.00 0.00 0.00 78 1015.9
20260507070606 11 162 0.0 1.6 0.00 0.00 0.00 77 1015.9
20260507070109 11 103 0.0 1.6 0.00 0.00 0.00 79 1015.9
20260507065607 11 75 0.0 1.6 0.00 0.00 0.00 81 1015.9
20260507065111 11 43 0.0 0.0 0.00 0.00 0.00 84 1015.9
20260507064606 11 68 0.0 0.0 0.00 0.00 0.00 84 1015.9
20260507064112 10 249 0.0 1.6 0.00 0.00 0.00 85 1015.9
20260507063608 10 266 0.0 0.0 0.00 0.00 0.00 86 1015.8
20260507063109 10 70 0.0 0.0 0.00 0.00 0.00 88 1015.8
20260507062605 9 88 0.0 0.0 0.00 0.00 0.00 88 1015.8
20260507062108 9 180 0.0 1.6 0.00 0.00 0.00 89 1015.8
20260507061610 8 230 0.0 1.6 0.00 0.00 0.00 89 1015.7
20260507061110 8 86 0.0 0.0 0.00 0.00 0.00 90 1015.7
20260507060113 8 89 0.0 0.0 0.00 0.00 0.00 90 1015.7
20260507055112 7 91 0.0 0.0 0.00 0.00 0.00 91 1015.6
20260507054615 7 91 0.0 0.0 0.00 0.00 0.00 91 1015.6
20260507053605 6 91 0.0 0.0 0.00 0.00 0.00 91 1015.5
20260507053107 6 53 0.0 0.0 0.00 0.00 0.00 91 1015.5
20260507052603 6 50 0.0 0.0 0.00 0.00 0.00 91 1015.3
20260507052105 6 44 0.0 0.0 0.00 0.00 0.00 91 1015.3
20260507051608 6 44 0.0 0.0 0.00 0.00 0.00 91 1015.3
20260507051048 5 44 0.0 0.0 0.00 0.00 0.00 91 1015.2
20260507050533 5 44 0.0 0.0 0.00 0.00 0.00 91 1015.1
20260507050036 5 44 0.0 0.0 0.00 0.00 0.00 91 1015.1
20260507045032 5 44 0.0 0.0 0.00 0.00 0.00 91 1015.0
20260507044520 5 44 0.0 0.0 0.00 0.00 0.00 91 1015.0
20260507044026 5 44 0.0 0.0 0.00 0.00 0.00 91 1014.9
20260507043516 5 44 0.0 0.0 0.00 0.00 0.00 91 1014.9
20260507042514 5 44 0.0 0.0 0.00 0.00 0.00 91 1014.8
20260507041945 5 44 0.0 0.0 0.00 0.00 0.00 91 1014.8
20260507041436 5 44 0.0 0.0 0.00 0.00 0.00 91 1014.8
20260507035909 5 44 0.0 0.0 0.00 0.00 0.00 91 1014.8
20260507035406 5 44 0.0 0.0 0.00 0.00 0.00 91 1014.8
20260507034902 5 44 0.0 0.0 0.00 0.00 0.00 91 1014.7
20260507033833 5 44 0.0 0.0 0.00 0.00 0.00 91 1014.7
20260507033336 5 44 0.0 0.0 0.00 0.00 0.00 91 1014.7
20260507032809 5 44 0.0 0.0 0.00 0.00 0.00 91 1014.6
20260507032308 5 44 0.0 0.0 0.00 0.00 0.00 90 1014.6
20260507031810 5 44 0.0 0.0 0.00 0.00 0.00 90 1014.5
20260507031310 5 44 0.0 0.0 0.00 0.00 0.00 90 1014.5
20260507030804 5 44 0.0 0.0 0.00 0.00 0.00 90 1014.5
20260507030305 5 44 0.0 0.0 0.00 0.00 0.00 90 1014.5
20260507024737 5 44 0.0 0.0 0.00 0.00 0.00 90 1014.4
20260507024232 5 44 0.0 0.0 0.00 0.00 0.00 90 1014.4
20260507023209 6 44 0.0 0.0 0.00 0.00 0.00 90 1014.4
20260507022700 6 44 0.0 0.0 0.00 0.00 0.00 90 1014.4
20260507022133 6 44 0.0 0.0 0.00 0.00 0.00 90 1014.3
20260507021638 6 44 0.0 0.0 0.00 0.00 0.00 90 1014.3
20260507021121 6 44 0.0 0.0 0.00 0.00 0.00 90 1014.3
20260507020608 6 44 0.0 0.0 0.00 0.00 0.00 90 1014.2
20260507020122 6 44 0.0 0.0 0.00 0.00 0.00 90 1014.2
20260507015613 6 44 0.0 0.0 0.00 0.00 0.00 90 1014.2
20260507015107 6 44 0.0 0.0 0.00 0.00 0.00 90 1014.1
20260507014610 6 44 0.0 0.0 0.00 0.00 0.00 89 1014.0
20260507014108 6 44 0.0 0.0 0.00 0.00 0.00 89 1014.1
20260507013607 6 44 0.0 0.0 0.00 0.00 0.00 89 1014.1
20260507013115 6 44 0.0 0.0 0.00 0.00 0.00 89 1014.1
20260507012611 6 44 0.0 0.0 0.00 0.00 0.00 89 1014.1
20260507012107 6 44 0.0 0.0 0.00 0.00 0.00 89 1014.1
20260507011606 6 44 0.0 0.0 0.00 0.00 0.00 89 1014.1
20260507010605 6 44 0.0 0.0 0.00 0.00 0.00 89 1014.1
20260507010108 6 44 0.0 0.0 0.00 0.00 0.00 89 1014.1
20260507005534 6 44 0.0 0.0 0.00 0.00 0.00 89 1014.0
20260507005032 6 44 0.0 0.0 0.00 0.00 0.00 89 1014.0
20260507004535 6 44 0.0 0.0 0.00 0.00 0.00 89 1014.0
20260507004031 6 44 0.0 0.0 0.00 0.00 0.00 89 1014.0
20260507003522 6 44 0.0 0.0 0.00 0.00 0.00 89 1013.9
20260507003022 6 44 0.0 0.0 0.00 0.00 0.00 89 1013.9
20260507002516 6 44 0.0 0.0 0.00 0.00 0.00 89 1014.0
20260507002022 7 44 0.0 0.0 0.00 0.00 0.00 89 1014.0
20260507001523 7 44 0.0 0.0 0.00 0.00 0.00 89 1014.0
20260507001020 7 44 0.0 0.0 0.00 0.00 0.00 89 1014.0
20260507000520 7 44 0.0 0.0 0.00 0.00 0.00 88 1014.1
20260507000028 7 44 0.0 0.0 0.00 0.00 0.00 88 1014.1
20260506235520 7 44 0.0 0.0 0.00 0.00 0.00 88 1014.1
20260506234520 7 44 0.0 0.0 0.00 0.00 0.00 88 1014.2
20260506234013 7 44 0.0 0.0 0.00 0.00 0.00 88 1014.1
20260506233031 7 44 0.0 0.0 0.00 0.00 0.00 88 1014.0
20260506232512 7 44 0.0 0.0 0.00 0.00 0.00 88 1014.0
20260506232026 7 44 0.0 0.0 0.00 0.00 0.00 87 1014.0
20260506231022 7 44 0.0 0.0 0.00 0.00 0.00 87 1014.0
20260506230517 7 44 0.0 0.0 0.00 0.00 0.00 87 1013.9
20260506230028 7 44 0.0 0.0 0.00 0.00 0.00 87 1013.9
20260506225520 7 44 0.0 0.0 0.00 0.00 0.00 87 1013.9
20260506225024 7 44 0.0 0.0 0.00 0.00 0.00 86 1013.9
20260506224520 7 44 0.0 0.0 0.00 0.00 0.00 86 1013.8
20260506224022 7 44 0.0 0.0 0.00 0.00 0.00 86 1013.8
20260506223012 7 44 0.0 0.0 0.00 0.00 0.00 87 1013.8
20260506222505 8 44 0.0 0.0 0.00 0.00 0.00 86 1013.8
20260506221947 8 44 0.0 0.0 0.00 0.00 0.00 86 1013.8
20260506221434 8 44 0.0 0.0 0.00 0.00 0.00 86 1013.8
20260506220925 8 44 0.0 0.0 0.00 0.00 0.00 86 1013.7
20260506220413 8 44 0.0 0.0 0.00 0.00 0.00 86 1013.6
20260506215905 8 44 0.0 0.0 0.00 0.00 0.00 86 1013.5
20260506215407 8 44 0.0 0.0 0.00 0.00 0.00 86 1013.5
20260506214409 8 43 0.0 0.0 0.00 0.00 0.00 86 1013.5
20260506213908 8 43 0.0 0.0 0.00 0.00 0.00 86 1013.5
20260506213407 8 42 0.0 0.0 0.00 0.00 0.00 86 1013.4
20260506212905 8 42 0.0 0.0 0.00 0.00 0.00 86 1013.4
20260506211910 8 42 0.0 0.0 0.00 0.00 0.00 85 1013.4
20260506210904 9 84 0.0 0.0 0.00 0.00 0.00 85 1013.4
20260506210404 9 50 0.0 0.0 0.00 0.00 0.00 85 1013.3
20260506205843 9 49 0.0 1.6 0.00 0.00 0.00 85 1013.3
20260506205340 9 49 0.0 1.6 0.00 0.00 0.00 84 1013.3
20260506204332 9 103 0.0 1.6 0.00 0.00 0.00 84 1013.2
20260506203832 9 110 0.0 1.6 0.00 0.00 0.00 83 1013.2
20260506203332 9 77 0.0 0.0 0.00 0.00 0.00 83 1013.2
20260506201833 10 216 0.0 0.0 0.00 0.00 0.00 82 1013.1
20260506201332 10 163 0.0 1.6 0.00 0.00 0.00 82 1013.1
20260506200831 10 194 0.0 1.6 0.00 0.00 0.00 81 1013.1
20260506200338 10 30 0.0 1.6 0.00 0.00 0.00 80 1012.9
20260506195815 10 55 0.0 1.6 0.00 0.00 0.00 80 1012.9
20260506195306 10 353 0.0 0.0 0.00 0.00 0.00 79 1012.8
20260506194810 10 45 0.0 1.6 0.00 0.00 0.00 79 1012.8
20260506194234 10 53 0.0 1.6 0.00 0.00 0.00 79 1012.7
20260506193242 10 219 0.0 3.2 0.00 0.00 0.00 77 1012.6
20260506192733 10 323 0.0 4.8 0.00 0.00 0.00 77 1012.6
20260506192232 10 243 0.0 4.8 0.00 0.00 0.00 77 1012.5
20260506191733 11 37 0.0 1.6 0.00 0.00 0.00 76 1012.4
20260506191212 11 64 0.0 4.8 0.00 0.00 0.00 75 1012.3
20260506190709 11 275 0.0 4.8 0.00 0.00 0.00 75 1012.3
20260506190207 11 28 0.0 4.8 0.00 0.00 0.00 74 1012.2
20260506185705 11 116 0.0 4.8 0.00 0.00 0.00 73 1012.1
20260506185203 11 77 0.0 6.4 0.00 0.00 0.00 72 1012.1
20260506184708 11 31 0.0 6.4 0.00 0.00 0.00 71 1012.1
20260506184205 11 55 0.0 1.6 0.00 0.00 0.00 71 1012.0
20260506183710 11 259 0.0 1.6 0.00 0.00 0.00 71 1012.0
20260506183205 12 212 0.0 3.2 0.00 0.00 0.00 69 1011.9
20260506182631 12 27 0.0 4.8 0.00 0.00 0.00 68 1011.9
20260506182134 12 23 0.0 4.8 0.00 0.00 0.00 66 1011.9
20260506181636 12 38 0.0 4.8 0.00 0.00 0.00 66 1011.7
20260506181103 12 148 0.0 6.4 0.00 0.00 0.00 66 1011.8
20260506180609 12 98 0.0 3.2 0.00 0.00 0.00 66 1011.7
20260506180106 12 75 0.0 3.2 0.00 0.00 0.00 65 1011.6
20260506175606 12 321 0.0 6.4 0.00 0.00 0.00 64 1011.6
20260506175108 13 64 0.0 6.4 0.00 0.00 0.00 64 1011.5
20260506174045 13 34 0.0 6.4 0.00 0.00 0.00 63 1011.3
20260506173534 13 32 0.0 3.2 0.00 0.00 0.00 61 1011.3
20260506173038 13 45 0.0 6.4 0.00 0.00 0.00 61 1011.3
20260506172538 13 19 0.0 6.4 0.00 0.00 0.00 62 1011.2
20260506172033 13 120 0.0 6.4 0.00 0.00 0.00 60 1011.2
20260506171523 13 262 0.0 4.8 0.00 0.00 0.00 61 1011.1
20260506171024 13 240 0.0 4.8 0.00 0.00 0.00 60 1011.1
20260506170521 13 148 0.0 4.8 0.00 0.00 0.00 59 1011.1
20260506170017 13 172 0.0 6.4 0.00 0.00 0.00 59 1011.1
20260506165516 13 47 0.0 6.4 0.00 0.00 0.00 60 1011.0
20260506165024 13 271 1.6 6.4 0.00 0.00 0.00 61 1011.0
20260506164514 13 271 1.6 6.4 0.00 0.00 0.00 61 1011.0
20260506164022 13 250 1.6 6.4 0.00 0.00 0.00 61 1011.0
20260506163023 13 37 0.0 12.9 0.00 0.00 0.00 62 1010.9
20260506162457 13 136 0.0 4.8 0.00 0.00 0.00 62 1010.9
20260506161953 13 257 0.0 4.8 0.00 0.00 0.00 61 1010.8
20260506161452 13 18 0.0 4.8 0.00 0.00 0.00 61 1010.9
20260506160952 14 11 0.0 4.8 0.00 0.00 0.00 62 1010.9
20260506160446 14 129 0.0 3.2 0.00 0.00 0.00 63 1010.9
20260506155935 14 277 1.6 11.3 0.00 0.00 0.00 64 1010.9
20260506154431 14 10 1.6 9.7 0.00 0.00 0.00 64 1010.9
20260506153932 14 39 1.6 9.7 0.00 0.00 0.00 63 1010.8
20260506153435 14 341 0.0 3.2 0.00 0.00 0.00 66 1010.7
20260506152934 14 33 0.0 4.8 0.00 0.00 0.00 66 1010.8
20260506152432 15 113 0.0 4.8 0.00 0.00 0.00 65 1010.7
20260506151933 14 162 0.0 3.2 0.00 0.00 0.00 66 1010.6
20260506151405 14 52 0.0 8.0 0.00 0.00 0.00 67 1010.6
20260506150907 14 16 0.0 8.0 0.00 0.00 0.00 66 1010.6
20260506150406 14 337 0.0 4.8 0.00 0.00 0.00 65 1010.7
20260506145408 15 250 0.0 8.0 0.00 0.00 0.00 63 1010.7
20260506144407 15 157 0.0 9.7 0.00 0.00 0.00 63 1010.6
20260506143404 15 5 0.0 6.4 0.00 0.00 0.00 60 1010.5
20260506142405 15 49 0.0 9.7 0.00 0.00 0.00 62 1010.4
20260506141911 15 139 0.0 9.7 0.00 0.00 0.00 63 1010.5
20260506141348 15 319 0.0 9.7 0.00 0.00 0.00 63 1010.5
20260506140340 15 332 0.0 6.4 0.00 0.00 0.00 62 1010.5
20260506135818 15 50 0.0 8.0 0.00 0.00 0.00 62 1010.5
20260506134813 15 167 0.0 3.2 0.00 0.00 0.00 63 1010.5
20260506134303 15 55 0.0 3.2 0.00 0.00 0.00 62 1010.4
20260506133804 15 50 0.0 6.4 0.00 0.00 0.00 62 1010.5
20260506133307 15 46 1.6 8.0 0.00 0.00 0.00 59 1010.5
20260506132806 15 90 1.6 8.0 0.00 0.00 0.00 61 1010.5
20260506132306 15 36 0.0 8.0 0.00 0.00 0.00 62 1010.4
20260506131235 16 283 0.0 6.4 0.00 0.00 0.00 60 1010.2
20260506130732 16 37 0.0 6.4 0.00 0.00 0.00 62 1010.3
20260506130235 16 248 0.0 6.4 0.00 0.00 0.00 59 1010.3
20260506125708 16 314 0.0 6.4 0.00 0.00 0.00 62 1010.3
20260506125207 16 79 0.0 6.4 0.00 0.00 0.00 63 1010.3
20260506124708 16 89 0.0 6.4 0.00 0.00 0.00 63 1010.3
20260506124206 16 90 0.0 6.4 0.00 0.00 0.00 67 1010.2
20260506123703 15 224 1.6 6.4 0.00 0.00 0.00 67 1010.3
20260506122633 15 165 0.0 6.4 0.00 0.00 0.00 69 1010.3
20260506121632 14 308 0.0 6.4 0.00 0.00 0.00 70 1010.2
20260506121105 14 32 0.0 6.4 0.00 0.00 0.00 69 1010.2
20260506120106 13 51 0.0 1.6 0.00 0.00 0.00 70 1010.2
20260506115603 14 297 0.0 6.4 0.00 0.00 0.00 69 1010.2
20260506115104 14 188 0.0 6.4 0.00 0.00 0.00 70 1010.2
20260506114610 14 13 0.0 4.8 0.00 0.00 0.00 68 1010.2
20260506114102 14 293 0.0 4.8 0.00 0.00 0.00 67 1010.3
20260506113602 14 259 0.0 4.8 0.00 0.00 0.00 67 1010.2
20260506113107 14 249 0.0 4.8 0.00 0.00 0.00 67 1010.2
20260506112536 14 248 0.0 4.8 0.00 0.00 0.00 67 1010.2
20260506111531 15 238 0.0 4.8 0.00 0.00 0.00 66 1010.1
20260506111037 15 241 0.0 6.4 0.00 0.00 0.00 65 1010.1
20260506110539 16 66 0.0 6.4 0.00 0.00 0.00 63 1010.1
20260506110026 16 31 0.0 6.4 0.00 0.00 0.00 63 1010.1
20260506105521 16 250 0.0 6.4 0.00 0.00 0.00 66 1010.1
20260506105022 15 315 0.0 1.6 0.00 0.00 0.00 65 1010.1
20260506104507 15 285 0.0 4.8 0.00 0.00 0.00 65 1010.1
20260506104008 15 29 0.0 4.8 0.00 0.00 0.00 67 1010.1
20260506102504 14 44 0.0 6.4 0.00 0.00 0.00 69 1010.0
20260506102001 13 50 0.0 3.2 0.00 0.00 0.00 71 1010.1
20260506100456 13 103 0.0 3.2 0.00 0.00 0.00 75 1010.0
20260506095934 13 76 0.0 6.4 0.00 0.00 0.00 76 1010.0
20260506095436 13 30 0.0 6.4 0.00 0.00 0.00 76 1010.1
20260506094934 13 145 0.0 4.8 0.00 0.00 0.00 76 1010.0
20260506093912 13 21 0.0 4.8 0.00 0.00 0.00 74 1010.1